Overview Statistics Trail Chart Weather Telemetry Raw packets
 

This is the latest recevied weather packets stored in our database for station/object W5CDN. If no packets are shown the sender has not sent any weather packets the latest 10 day(s).

<< 8 9 10 11 12 13 14 >>
Time Temp. Humidity Pressure Rain* Wind** Luminosity Snow
1788368036 30.56° C 65% 1014.5 hPa 0 mm - - -
1788367736 30.56° C 66% 1014.7 hPa 0 mm - - -
1788367436 30.56° C 67% 1014.6 hPa 0 mm - - -
1788367136 30° C 70% 1014.7 hPa 0 mm - - -
1788366836 28.33° C 74% 1014.9 hPa 0 mm - - -
1788366536 28.89° C 75% 1015 hPa 0 mm - - -
1788366236 28.89° C 75% 1015 hPa 0 mm - - -
1788365936 28.89° C 76% 1014.8 hPa 0 mm - - -
1788365636 28.89° C 77% 1014.9 hPa 0 mm - - -
1788365336 29.44° C 76% 1015.1 hPa 0 mm - - -
1788365036 28.89° C 75% 1015 hPa 0 mm - - -
1788364736 28.33° C 80% 1014.7 hPa 0 mm - - -
1788364436 28.33° C 79% 1014.8 hPa 0 mm - - -
1788364136 28.33° C 79% 1015 hPa 0 mm - - -
1788363836 28.33° C 80% 1014.9 hPa 0 mm - - -
1788363536 28.33° C 80% 1014.8 hPa 0 mm - - -
1788363251 29.44° C 77% 1014.6 hPa 0 mm - - -
1788362936 28.33° C 78% 1015 hPa 0 mm - - -
1788362636 28.89° C 78% 1014.8 hPa 0 mm - - -
1788362336 28.33° C 79% 1014.9 hPa 0 mm - - -
1788362036 28.33° C 80% 1014.5 hPa 0 mm - - -
1788361736 27.78° C 79% 1014.6 hPa 0 mm - - -
1788361436 28.89° C 79% 1014.6 hPa 0 mm - - -
1788361136 29.44° C 78% 1014.8 hPa 0 mm - - -
1788360836 28.33° C 79% 1014.8 hPa 0 mm - - -

* Rain latest hour (hover to see other rain measurements)
** Current wind speed in m/s (hover to see current wind gust speed)